Miscellaneous Local Product
Issued by NWS Hastings, NE

Home | Current Version | Previous Version | Graphics & Text | Print | Product List | Glossary On
Versions: 1 2 3 4 5 6 7 8 9 10 11 12 13 14 15 16 17 18 19 20 21 22 23 24 25 26 27 28 29 30 31 32 33 34 35 36 37 38 39 40 41 42 43 44 45 46 47 48 49 50
000
AXUS43 KGID 270902
MISGRI

GID CWA HOURLY WEATHER ROUNDUP
NATIONAL WEATHER SERVICE HASTINGS NE
300 AM CST TUE JAN 27 2015

NOTE: "FAIR" INDICATES FEW OR NO CLOUDS BELOW 12,000 FEET WITH NO
SIGNIFICANT WEATHER AND/OR OBSTRUCTIONS TO VISIBILITY.

...SOUTH CENTRAL NEBRASKA...

CITY           SKY/WX    TMP DP  RH WIND       PRES   REMARKS
GRAND ISLAND   CLEAR     27  24  89 E6        30.08S WCI  20
HASTINGS       CLEAR     32  26  78 CALM      30.06F
KEARNEY        PTCLDY    34  27  75 CALM      30.06S
ORD            CLEAR     27  24  89 CALM      30.05S
YORK           CLEAR     30  27  86 NW3       30.09R
AURORA         CLEAR     30  28  90 CALM      30.08S
LEXINGTON      CLEAR     29  26  88 W5        30.06S WCI  24
HOLDREGE       PTCLDY    36  27  71 SW3       30.06S
HEBRON         CLEAR     28  24  86 CALM      30.10S

...NEBRASKA PANHANDLE...

CITY           SKY/WX    TMP DP  RH WIND       PRES   REMARKS
CHADRON        PTCLDY    34  27  75 SW8       30.04S WCI  27
ALLIANCE       CLEAR     32  27  81 W7        30.07S WCI  26
SCOTTSBLUFF    PTCLDY    33  28  81 N7        30.09S WCI  27
SIDNEY         PTCLDY    31  25  78 NW6       30.11S WCI  25

...WESTERN AND NORTH CENTRAL NEBRASKA...

CITY           SKY/WX    TMP DP  RH WIND       PRES   REMARKS
VALENTINE      CLEAR     29  27  92 SW7       30.01S WCI  22
AINSWORTH      CLEAR     37  31  81 SW7       30.00F WCI  31
ONEILL         CLEAR     33  30  89 S5        30.04F WCI  28
BROKEN BOW     CLEAR     29  25  85 CALM      30.03F
IMPERIAL       PTCLDY    36  27  69 W7        30.09S WCI  30
NORTH PLATTE   CLEAR     26  23  88 NW6       30.07S WCI  19
MCCOOK         CLEAR     34  29  82 W6        30.08S WCI  29

...EASTERN NEBRASKA...

CITY           SKY/WX    TMP DP  RH WIND       PRES   REMARKS
NORFOLK        CLEAR     30  27  88 CALM      30.06S
SO SIOUX CITY  CLEAR     30  29  96 NW3       30.07S
TEKAMAH        CLEAR     29  27  92 CALM      30.08R
COLUMBUS       CLEAR     25  16  68 CALM      30.09S
ALBION         CLEAR     28  25  87 CALM      30.06F
OMAHA EPPLEY   CLEAR     31  29  92 N5        30.08R WCI  26
OFFUTT AFB     CLEAR     27  26  95 CALM      30.07R
MILLARD        CLEAR     33  30  89 CALM      30.08R
LINCOLN        CLEAR     24  20  84 N5        30.10R WCI  18
NEBRASKA CITY  CLEAR     37  30  77 CALM      30.08R
BEATRICE       PTCLDY    26  22  85 CALM      30.09R
FALLS CITY     CLEAR     32  27  81 NW6       30.08R WCI  26

...NORTHERN KANSAS...

CITY           SKY/WX    TMP DP  RH WIND       PRES   REMARKS
GOODLAND       CLEAR     45  30  55 W14       30.12S
HILL CITY      CLEAR     37  28  70 W5        30.10R WCI  33
NORTON         SUNNY     34  27  75 SW8       30.08R WCI  27
PHILLIPSBURG   CLEAR     36  28  75 W5        30.08S WCI  32
SMITH CENTER   CLEAR     34  25  69 W3        30.09R
BELOIT         CLEAR     28  25  86 N3        30.08S
HAYS           CLEAR     34  21  60 W3        30.10S
RUSSELL        CLEAR     33  28  81 SW7       30.08S WCI  27
CONCORDIA      CLEAR     39  32  76 CALM      30.09R
SALINA         CLEAR     35  28  75 CALM      30.10R
TOPEKA         CLEAR     32  26  78 CALM      30.10R



USA.gov is the U.S. government's official web portal to all federal, state and local government web resources and services.